Location: Caltech
(34.1382°N, 118.1253°W)
Time: 15:24:57
(UTC-08:00)

SO-67 - Visible Passes

Search period start: 17 January 2017 00:00
Search period end: 27 January 2017 00:00
Orbit: 412 x 412 km, 97.1° (Epoch: 17 January)

Date Brightness Start Highest point End Pass type
(mag) Time Alt. Az. Time Alt. Az. Time Alt. Az.
17 Jan ? 05:46:54 10° E 05:47:36 11° E 05:48:19 10° ESE visible
17 Jan ? 17:38:54 10° SE 17:41:45 32° ENE 17:44:37 10° N visible
18 Jan ? 06:30:04 10° NNE 06:33:11 52° E 06:36:17 10° S visible
18 Jan ? 18:24:06 10° S 18:27:06 40° W 18:30:07 10° NNW visible
19 Jan ? 05:46:09 10° E 05:46:27 10° E 05:46:44 10° E visible
19 Jan ? 17:37:46 10° SE 17:40:36 30° ENE 17:43:27 10° N visible
20 Jan ? 18:22:54 10° S 18:25:55 42° W 18:28:58 10° NNW visible
21 Jan ? 17:36:38 10° SE 17:39:25 29° ENE 17:42:14 10° NNE visible
22 Jan ? 18:21:41 10° S 18:24:43 44° W 18:27:47 10° NNW visible
24 Jan ? 06:26:32 10° NNE 06:29:36 45° E 06:32:39 10° S visible
24 Jan ? 18:20:26 10° S 18:23:30 47° W 18:26:34 10° NNW visible
26 Jan ? 06:25:18 10° NNE 06:28:22 42° E 06:31:23 10° S visible
26 Jan ? 18:19:10 10° S 18:22:14 49° W 18:25:20 10° NNW visible
